N907SP KLAS-KSLC

Flight info

Callsign N907SP
Flight time 0h 53m
Altitude 33000
Route RATPK3 FRNCK MLF QWENN6
Aircraft C750/M-SBDE3FGHRWXY/S

Departure

Time 2026-05-04 04:17
Airport Harry Reid International Airport (KLAS)

Arrival

Time 2026-05-04 05:10
Airport Salt Lake City International Airport (KSLC)
Time Latitude Longitude Altitude Speed Heading
2026-05-04 03:54 36.09976 -115.16247 2111 ft 0 kts 55°
2026-05-04 04:13 36.09976 -115.16246 2115 ft 1 kts 61°
2026-05-04 04:13 36.09971 -115.16239 2115 ft 2 kts 143°
2026-05-04 04:13 36.09934 -115.16220 2115 ft 9 kts 159°
2026-05-04 04:13 36.09892 -115.16180 2115 ft 9 kts 123°
2026-05-04 04:14 36.09882 -115.16150 2115 ft 5 kts 109°
2026-05-04 04:14 36.09862 -115.16104 2115 ft 6 kts 122°
2026-05-04 04:14 36.09853 -115.16066 2116 ft 4 kts 74°
2026-05-04 04:14 36.09891 -115.16041 2117 ft 9 kts 17°
2026-05-04 04:15 36.09952 -115.16011 2118 ft 9 kts 26°
2026-05-04 04:15 36.09982 -115.15956 2118 ft 8 kts 103°
2026-05-04 04:15 36.09963 -115.15902 2119 ft 6 kts 135°
2026-05-04 04:15 36.09931 -115.15859 2119 ft 9 kts 118°
2026-05-04 04:16 36.09906 -115.15792 2120 ft 8 kts 116°
2026-05-04 04:16 36.09867 -115.15729 2119 ft 12 kts 159°
2026-05-04 04:16 36.09751 -115.15769 2122 ft 27 kts 204°
2026-05-04 04:16 36.09307 -115.16023 2116 ft 118 kts 205°
2026-05-04 04:17 36.08435 -115.16521 2351 ft 154 kts 205°
2026-05-04 04:17 36.07388 -115.17155 2837 ft 175 kts 211°
2026-05-04 04:17 36.06543 -115.18294 3289 ft 195 kts 240°
2026-05-04 04:17 36.06247 -115.20027 3804 ft 224 kts 269°
2026-05-04 04:18 36.06542 -115.21956 4418 ft 233 kts 278°
2026-05-04 04:18 36.06915 -115.23936 5097 ft 238 kts 278°
2026-05-04 04:18 36.07304 -115.25912 6124 ft 240 kts 284°
2026-05-04 04:18 36.08282 -115.27669 6902 ft 258 kts 312°
2026-05-04 04:19 36.09864 -115.28792 7848 ft 272 kts 339°
2026-05-04 04:19 36.11716 -115.29336 8925 ft 275 kts 345°
2026-05-04 04:19 36.13643 -115.29605 9770 ft 287 kts
2026-05-04 04:19 36.15501 -115.28725 10619 ft 288 kts 35°
2026-05-04 04:20 36.16833 -115.26932 11536 ft 284 kts 61°
2026-05-04 04:20 36.17705 -115.24749 12413 ft 283 kts 73°
2026-05-04 04:20 36.18377 -115.22486 13324 ft 285 kts 73°
2026-05-04 04:20 36.19107 -115.20190 14137 ft 289 kts 71°
2026-05-04 04:21 36.19621 -115.17789 14776 ft 290 kts 91°
2026-05-04 04:21 36.19606 -115.15294 15606 ft 290 kts 94°
2026-05-04 04:21 36.19605 -115.12773 16386 ft 296 kts 93°
2026-05-04 04:21 36.19621 -115.10206 17146 ft 300 kts 93°
2026-05-04 04:22 36.19625 -115.07595 17981 ft 305 kts 94°
2026-05-04 04:22 36.19620 -115.04933 18653 ft 313 kts 94°
2026-05-04 04:22 36.19619 -115.02191 19276 ft 323 kts 94°
2026-05-04 04:22 36.19621 -114.99372 19942 ft 331 kts 94°
2026-05-04 04:23 36.19621 -114.96482 20601 ft 340 kts 94°
2026-05-04 04:23 36.19617 -114.93511 21231 ft 350 kts 94°
2026-05-04 04:23 36.19640 -114.90461 21871 ft 360 kts 90°
2026-05-04 04:23 36.20195 -114.87372 22465 ft 374 kts 72°
2026-05-04 04:24 36.21152 -114.84339 23156 ft 382 kts 67°
2026-05-04 04:24 36.22513 -114.81532 23591 ft 390 kts 44°
2026-05-04 04:24 36.24642 -114.79549 24314 ft 379 kts 24°
2026-05-04 04:24 36.26960 -114.77996 24992 ft 381 kts 20°
2026-05-04 04:25 36.29286 -114.76354 25612 ft 390 kts 25°
2026-05-04 04:25 36.31538 -114.74428 26274 ft 397 kts 29°
2026-05-04 04:25 36.33798 -114.72425 26924 ft 400 kts 27°
2026-05-04 04:25 36.36138 -114.70525 27517 ft 404 kts 24°
2026-05-04 04:26 36.38519 -114.68662 28209 ft 407 kts 24°
2026-05-04 04:26 36.40907 -114.66710 28849 ft 413 kts 25°
2026-05-04 04:26 36.43304 -114.64692 29506 ft 418 kts 25°
2026-05-04 04:26 36.45737 -114.62679 30073 ft 421 kts 24°
2026-05-04 04:27 36.48200 -114.60680 30648 ft 425 kts 24°
2026-05-04 04:27 36.50688 -114.58645 31133 ft 431 kts 25°
2026-05-04 04:27 36.53194 -114.56569 31710 ft 434 kts 25°
2026-05-04 04:27 36.55727 -114.54472 32228 ft 439 kts 25°
2026-05-04 04:28 36.58280 -114.52365 32660 ft 445 kts 25°
2026-05-04 04:28 36.60923 -114.50198 32660 ft 464 kts 25°
2026-05-04 04:28 36.63667 -114.47938 32670 ft 482 kts 26°
2026-05-04 04:28 36.66463 -114.45614 32672 ft 498 kts 26°
2026-05-04 04:29 36.69394 -114.43180 32671 ft 513 kts 26°
2026-05-04 04:29 36.72407 -114.40687 32679 ft 527 kts 26°
2026-05-04 04:29 36.75500 -114.38127 32722 ft 540 kts 27°
2026-05-04 04:29 36.78667 -114.35494 32694 ft 554 kts 27°
2026-05-04 04:30 36.81904 -114.32799 32700 ft 565 kts 27°
2026-05-04 04:30 36.85210 -114.30047 32704 ft 575 kts 27°
2026-05-04 04:30 36.91942 -114.24434 32720 ft 587 kts 27°
2026-05-04 04:31 36.98778 -114.18724 32722 ft 594 kts 27°
2026-05-04 04:31 37.05677 -114.12948 32743 ft 599 kts 27°
2026-05-04 04:32 37.12622 -114.07118 32748 ft 600 kts 27°
2026-05-04 04:32 37.19521 -114.01314 32748 ft 595 kts 27°
2026-05-04 04:33 37.26374 -113.95544 32772 ft 592 kts 27°
2026-05-04 04:33 37.33153 -113.89814 32790 ft 591 kts 27°
2026-05-04 04:34 37.39970 -113.84045 32813 ft 590 kts 27°
2026-05-04 04:34 37.46786 -113.78265 32820 ft 590 kts 27°
2026-05-04 04:35 37.53591 -113.72476 32827 ft 589 kts 27°
2026-05-04 04:35 37.60333 -113.66733 32847 ft 588 kts 28°
2026-05-04 04:36 37.67109 -113.60943 32852 ft 587 kts 28°
2026-05-04 04:36 37.73864 -113.55162 32855 ft 586 kts 28°
2026-05-04 04:37 37.87350 -113.43579 32882 ft 582 kts 29°
2026-05-04 04:38 37.94021 -113.37831 32874 ft 578 kts 29°
2026-05-04 04:38 38.00665 -113.32092 32846 ft 578 kts 29°
2026-05-04 04:39 38.07276 -113.26367 32846 ft 579 kts 29°
2026-05-04 04:39 38.13945 -113.20583 32858 ft 576 kts 30°
2026-05-04 04:40 38.20531 -113.14854 32888 ft 576 kts 30°
2026-05-04 04:40 38.27148 -113.09089 32908 ft 576 kts 31°
2026-05-04 04:41 38.33771 -113.03312 32945 ft 576 kts 30°
2026-05-04 04:41 38.40856 -112.98756 32941 ft 568 kts 18°
2026-05-04 04:42 38.48176 -112.94869 32951 ft 570 kts 18°
2026-05-04 04:42 38.55453 -112.90973 32923 ft 570 kts 18°
2026-05-04 04:43 38.62790 -112.87058 32871 ft 571 kts 19°
2026-05-04 04:43 38.70111 -112.83123 32813 ft 570 kts 19°
2026-05-04 04:44 38.77428 -112.79199 32798 ft 570 kts 19°
2026-05-04 04:44 38.84740 -112.75255 32798 ft 570 kts 19°
2026-05-04 04:45 38.90786 -112.71992 32774 ft 564 kts 20°
2026-05-04 04:47 39.15382 -112.58658 30861 ft 524 kts 22°
2026-05-04 04:47 39.18718 -112.56836 30203 ft 517 kts 22°
2026-05-04 04:47 39.21977 -112.55062 29516 ft 511 kts 23°
2026-05-04 04:47 39.25229 -112.53292 28907 ft 504 kts 23°
2026-05-04 04:48 39.28439 -112.51538 28085 ft 498 kts 23°
2026-05-04 04:49 39.41422 -112.46842 25507 ft 472 kts 14°
2026-05-04 04:49 39.44581 -112.45792 24926 ft 467 kts 13°
2026-05-04 04:49 39.47713 -112.44769 24353 ft 462 kts 13°
2026-05-04 04:49 39.50878 -112.43722 23799 ft 478 kts 13°
2026-05-04 04:50 39.54098 -112.42641 23246 ft 476 kts 13°
2026-05-04 04:50 39.57292 -112.41572 22630 ft 470 kts 13°
2026-05-04 04:50 39.60441 -112.40529 22021 ft 465 kts 13°
2026-05-04 04:50 39.63530 -112.39503 21435 ft 462 kts 13°
2026-05-04 04:51 39.66625 -112.38466 20863 ft 457 kts 13°
2026-05-04 04:51 39.69692 -112.37438 20303 ft 453 kts 13°
2026-05-04 04:51 39.72732 -112.36424 19754 ft 449 kts 13°
2026-05-04 04:51 39.75750 -112.35415 19227 ft 445 kts 13°
2026-05-04 04:52 39.78730 -112.34414 18713 ft 441 kts 13°
2026-05-04 04:52 39.81682 -112.33423 18211 ft 436 kts 13°
2026-05-04 04:52 39.84610 -112.32442 17666 ft 433 kts 13°
2026-05-04 04:52 39.87519 -112.31465 17106 ft 429 kts 13°
2026-05-04 04:53 39.90399 -112.30496 16563 ft 426 kts 13°
2026-05-04 04:53 39.93256 -112.29533 16040 ft 423 kts 14°
2026-05-04 04:53 39.96098 -112.28575 15513 ft 420 kts 14°
2026-05-04 04:53 39.98916 -112.27626 15013 ft 417 kts 14°
2026-05-04 04:54 40.01709 -112.26684 14520 ft 411 kts 14°
2026-05-04 04:54 40.04463 -112.25754 14039 ft 407 kts 14°
2026-05-04 04:54 40.07190 -112.24831 13557 ft 403 kts 15°
2026-05-04 04:54 40.09901 -112.23914 13042 ft 401 kts 15°
2026-05-04 04:55 40.12595 -112.23002 12536 ft 399 kts 15°
2026-05-04 04:55 40.15276 -112.22093 12039 ft 397 kts 15°
2026-05-04 04:55 40.17945 -112.21187 11553 ft 396 kts 15°
2026-05-04 04:55 40.20601 -112.20286 11080 ft 394 kts 15°
2026-05-04 04:56 40.23228 -112.19394 10917 ft 379 kts 15°
2026-05-04 04:56 40.25683 -112.18561 10908 ft 354 kts 15°
2026-05-04 04:56 40.28058 -112.17752 10906 ft 359 kts 15°
2026-05-04 04:56 40.30475 -112.16927 10923 ft 360 kts 15°
2026-05-04 04:57 40.32902 -112.16101 10929 ft 360 kts 15°
2026-05-04 04:57 40.35335 -112.15272 10942 ft 361 kts 15°
2026-05-04 04:57 40.37760 -112.14444 10954 ft 361 kts 15°
2026-05-04 04:57 40.40185 -112.13616 10965 ft 360 kts 15°
2026-05-04 04:58 40.42614 -112.12786 10975 ft 361 kts 15°
2026-05-04 04:58 40.45045 -112.11953 10986 ft 363 kts 14°
2026-05-04 04:58 40.47483 -112.11120 10995 ft 361 kts 14°
2026-05-04 04:58 40.49921 -112.10286 11004 ft 361 kts 14°
2026-05-04 04:59 40.52350 -112.09452 11013 ft 362 kts 14°
2026-05-04 04:59 40.54778 -112.08619 11023 ft 361 kts 14°
2026-05-04 04:59 40.57214 -112.07784 11027 ft 361 kts 14°
2026-05-04 04:59 40.59651 -112.06946 11027 ft 362 kts 14°
2026-05-04 05:00 40.62108 -112.06276 11001 ft 362 kts
2026-05-04 05:00 40.64590 -112.06279 11020 ft 360 kts 356°
2026-05-04 05:00 40.69593 -112.06860 11029 ft 361 kts 354°
2026-05-04 05:01 40.72107 -112.07193 11024 ft 360 kts 354°
2026-05-04 05:01 40.74612 -112.07528 10829 ft 365 kts 354°
2026-05-04 05:01 40.77076 -112.07859 10411 ft 345 kts 354°
2026-05-04 05:01 40.79261 -112.08153 9971 ft 292 kts 354°
2026-05-04 05:02 40.81314 -112.08427 9560 ft 305 kts 354°
2026-05-04 05:02 40.83363 -112.08702 9111 ft 297 kts 354°
2026-05-04 05:02 40.85408 -112.08983 8686 ft 292 kts 353°
2026-05-04 05:02 40.87390 -112.09250 8325 ft 281 kts 354°
2026-05-04 05:03 40.89309 -112.09507 8124 ft 269 kts 354°
2026-05-04 05:03 40.91190 -112.09764 7700 ft 274 kts 354°
2026-05-04 05:04 40.96721 -112.10558 7486 ft 268 kts 354°
2026-05-04 05:04 40.98528 -112.10782 7468 ft 253 kts
2026-05-04 05:04 41.00144 -112.10064 7402 ft 246 kts 37°
2026-05-04 05:06 40.97356 -111.97672 7117 ft 245 kts 156°
2026-05-04 05:06 40.95772 -111.96952 7129 ft 242 kts 164°
2026-05-04 05:06 40.94141 -111.96499 7006 ft 236 kts 170°
2026-05-04 05:07 40.92569 -111.96281 6713 ft 213 kts 176°
2026-05-04 05:07 40.91179 -111.96231 6534 ft 191 kts 179°
2026-05-04 05:07 40.89893 -111.96215 6341 ft 179 kts 178°
2026-05-04 05:09 40.81449 -111.96217 4545 ft 138 kts 179°
2026-05-04 05:09 40.80515 -111.96211 4391 ft 133 kts 178°
2026-05-04 05:10 40.79608 -111.96209 4250 ft 126 kts 178°
2026-05-04 05:10 40.78832 -111.96206 4229 ft 85 kts 185°
2026-05-04 05:10 40.78419 -111.96207 4223 ft 47 kts 179°
2026-05-04 05:10 40.78255 -111.96188 4224 ft 11 kts 137°
2026-05-04 05:11 40.78240 -111.96088 4222 ft 12 kts 88°
2026-05-04 05:11 40.78265 -111.96005 4221 ft 10 kts 21°
2026-05-04 05:11 40.78325 -111.96001 4222 ft 9 kts 357°
2026-05-04 05:11 40.78396 -111.96003 4224 ft 12 kts
2026-05-04 05:12 40.78477 -111.96001 4226 ft 11 kts
2026-05-04 05:12 40.78533 -111.95981 4226 ft 7 kts 56°
2026-05-04 05:12 40.78565 -111.95934 4226 ft 7 kts 28°
2026-05-04 05:12 40.78605 -111.95912 4227 ft 4 kts 47°
2026-05-04 05:13 40.78603 -111.95888 4227 ft 2 kts 121°
2026-05-04 05:13 40.78598 -111.95882 4227 ft 0 kts 136°